Location: Flotzheim
(48.8375°N, 10.8136°E)
Time: 04:38:42
(UTC+00:00)

H-2A R/B - Pass Details

Date: 23 January 2021
Orbit: 577 x 655 km, 98.5° (Epoch: 26 February)

Event Time Altitude Azimuth Distance (km) Brightness Sun altitude
Rises 17:39:29 0° 7° (N) 2,973 5.4 -16.1°
Reaches altitude 10° 17:41:52 10° 358° (N) 2,048 4.6 -16.5°
Maximum altitude 17:45:52 34° 295° (WNW) 1,054 3.7 -17.1°
Drops below altitude 10° 17:49:47 10° 230° (SW) 1,994 5.6 -17.8°
Sets 17:52:05 0° 221° (SW) 2,882 6.3 -18.2°
